Weather History for Marysville, OH

Change the Weather History Date:

Wednesday, January 30, 2013

  Actual Average (KDLZ) Record (KDLZ)
Temperature  
Mean Temperature 47 °F -  
Max Temperature 61 °F 34 °F 65 °F (1975)
Min Temperature 33 °F 18 °F -11 °F (1977)
Degree Days  
Heating Degree Days 18    
Moisture  
Dew Point 46 °F    
Average Humidity 81    
Maximum Humidity 94    
Minimum Humidity 70    
Precipitation  
Precipitation 0.47 in - - ()
Sea Level Pressure  
Sea Level Pressure 29.39 in    
Wind  
Wind Speed 17 mph (SW)    
Max Wind Speed 31 mph    
Max Gust Speed 41 mph    
Visibility 9 miles    
Events      
Averages and records for this station are not official NWS values.
T = Trace of Precipitation, MM = Missing Value Source: NWS Daily Summary

Daily Weather History Graph

Daily Weather History Graph

Search for Another Location

Airport:

Trip Planner

Search our weather history database for the weather conditions in past years. The results will help you decide how hot, cold, wet, or windy it might be!

Date:

Astronomy

Jan. 30, 2013 Rise Set
Actual Time 7:43 AM EST 5:50 PM EST
Civil Twilight 7:15 AM EST 6:18 PM EST
Nautical Twilight 6:42 AM EST 6:51 PM EST
Astronomical Twilight 6:10 AM EST 7:23 PM EST
Moon 9:48 PM EST (1/30) 9:10 AM EST (1/30)
Length of Visible Light 11h 03m
Length of Day
10h 06m
Waning Gibbous, 88% of the Moon is Illuminated
Jan 30
Waning Gibbous
Feb 3
Last Quarter
Feb 10
New
Feb 17
First Quarter
Feb 25
Full

Hourly Weather History & Observations

Time (EST) Temp. Windchill Dew Point Humidity Pressure Visibility Wind Dir Wind Speed Gust Speed Precip Events Conditions
12:14 AM 59.0 °F - 52.9 °F 80% 29.62 in 10.0 mi SSW 17.3 mph - N/A   Mostly Cloudy
12:34 AM 59.0 °F - 52.9 °F 80% 29.60 in 10.0 mi SSW 13.8 mph 20.7 mph N/A   Scattered Clouds
12:54 AM 58.8 °F - 53.1 °F 81% 29.59 in 10.0 mi SSW 16.1 mph 21.9 mph N/A   Clear
1:14 AM 59.4 °F - 53.2 °F 80% 29.57 in 10.0 mi SSW 17.3 mph 24.2 mph N/A   Clear
1:34 AM 59.9 °F - 53.1 °F 78% 29.56 in 10.0 mi SSW 17.3 mph 25.3 mph N/A   Clear
1:54 AM 59.9 °F - 52.9 °F 78% 29.55 in 10.0 mi SSW 16.1 mph 24.2 mph N/A   Clear
2:14 AM 59.5 °F - 52.5 °F 78% 29.54 in 10.0 mi South 18.4 mph 25.3 mph N/A   Clear
2:34 AM 59.0 °F - 52.2 °F 78% 29.52 in 10.0 mi South 18.4 mph - N/A   Clear
2:54 AM 58.5 °F - 51.8 °F 79% 29.51 in 10.0 mi South 16.1 mph - N/A   Clear
3:14 AM 59.0 °F - 51.8 °F 77% 29.49 in 10.0 mi South 19.6 mph 25.3 mph N/A   Clear
3:34 AM 59.2 °F - 52.0 °F 77% 29.48 in 10.0 mi South 16.1 mph - N/A   Clear
3:54 AM 58.3 °F - 51.8 °F 79% 29.47 in 10.0 mi South 12.7 mph - N/A   Mostly Cloudy
4:14 AM 60.8 °F - 52.2 °F 73% 29.45 in 10.0 mi South 17.3 mph 25.3 mph N/A   Overcast
4:34 AM 61.0 °F - 52.3 °F 73% 29.44 in 10.0 mi SSW 19.6 mph 25.3 mph N/A   Overcast
4:53 AM 61.5 °F - 52.7 °F 73% 29.44 in 10.0 mi SSW 20.7 mph 27.6 mph N/A   Overcast
5:14 AM 61.2 °F - 52.9 °F 74% 29.40 in 10.0 mi South 18.4 mph 21.9 mph N/A   Overcast
5:34 AM 61.2 °F - 52.9 °F 74% 29.40 in 10.0 mi South 13.8 mph 26.5 mph N/A   Overcast
5:53 AM 60.3 °F - 52.7 °F 76% 29.36 in 10.0 mi South 17.3 mph 23.0 mph N/A   Overcast
6:14 AM 59.9 °F - 52.0 °F 75% 29.35 in 10.0 mi South 16.1 mph 23.0 mph N/A   Overcast
6:34 AM 59.0 °F - 51.6 °F 76% 29.33 in 10.0 mi South 9.2 mph - N/A   Overcast
6:53 AM 57.0 °F - 53.6 °F 88% 29.40 in 1.8 mi WNW 11.5 mph 41.4 mph 0.11 in   Overcast
7:14 AM 54.7 °F - 51.8 °F 90% 29.45 in 4.0 mi NW 11.5 mph 18.4 mph 0.07 in   Overcast
7:34 AM 52.9 °F - 50.2 °F 91% 29.47 in 5.0 mi NW 12.7 mph 20.7 mph 0.13 in   Overcast
7:54 AM 52.2 °F - 49.5 °F 91% 29.44 in 4.0 mi North 8.1 mph - 0.18 in   Overcast
8:14 AM 51.6 °F - 49.1 °F 91% 29.44 in 3.0 mi Calm Calm - 0.02 in   Overcast
8:34 AM 50.9 °F - 49.1 °F 94% 29.46 in 2.0 mi South 4.6 mph - 0.04 in   Overcast
8:54 AM 50.9 °F - 49.1 °F 94% 29.47 in 7.0 mi South 11.5 mph - 0.06 in   Overcast
9:14 AM 51.1 °F - 49.3 °F 94% 29.43 in 4.0 mi Calm Calm - 0.01 in   Overcast
9:34 AM 51.1 °F - 49.3 °F 94% 29.42 in 10.0 mi South 8.1 mph - 0.02 in   Overcast
9:54 AM 51.3 °F - 49.5 °F 94% 29.45 in 10.0 mi South 15.0 mph - 0.03 in   Overcast
10:14 AM 52.0 °F - 50.0 °F 93% 29.45 in 10.0 mi SSW 17.3 mph - 0.01 in   Overcast
10:34 AM 52.7 °F - 50.0 °F 91% 29.40 in 10.0 mi South 20.7 mph 25.3 mph 0.02 in   Overcast
10:54 AM 52.9 °F - 50.0 °F 90% 29.41 in 10.0 mi SSW 13.8 mph 19.6 mph 0.03 in   Overcast
11:14 AM 53.2 °F - 49.6 °F 88% 29.37 in 10.0 mi South 20.7 mph 27.6 mph N/A   Overcast
11:34 AM 53.6 °F - 49.3 °F 85% 29.37 in 10.0 mi South 21.9 mph 28.8 mph 0.01 in   Overcast
11:54 AM 54.5 °F - 48.9 °F 81% 29.38 in 10.0 mi SSW 16.1 mph 21.9 mph 0.01 in   Overcast
12:13 PM 54.7 °F - 48.2 °F 79% 29.38 in 10.0 mi SSW 16.1 mph 20.7 mph N/A   Overcast
12:34 PM 54.9 °F - 48.2 °F 78% 29.38 in 10.0 mi SW 17.3 mph 24.2 mph N/A   Mostly Cloudy
12:54 PM 55.2 °F - 48.2 °F 77% 29.38 in 10.0 mi SW 18.4 mph 24.2 mph 0.01 in   Scattered Clouds
1:13 PM 55.4 °F - 48.2 °F 77% 29.39 in 10.0 mi SW 20.7 mph 26.5 mph N/A   Mostly Cloudy
1:34 PM 55.0 °F - 48.6 °F 79% 29.35 in 10.0 mi SSW 18.4 mph 29.9 mph N/A   Overcast
1:54 PM 54.9 °F - 48.7 °F 80% 29.35 in 10.0 mi SW 20.7 mph 29.9 mph 0.01 in   Overcast
2:14 PM 54.9 °F - 48.6 °F 79% 29.35 in 10.0 mi SW 20.7 mph 32.2 mph N/A   Overcast
2:34 PM 54.5 °F - 48.6 °F 80% 29.35 in 10.0 mi SW 21.9 mph 28.8 mph N/A   Overcast
2:54 PM 54.5 °F - 48.4 °F 80% 29.31 in 10.0 mi SSW 17.3 mph 29.9 mph 0.01 in   Overcast
3:14 PM 54.5 °F - 48.2 °F 79% 29.32 in 10.0 mi SSW 17.3 mph 27.6 mph N/A   Overcast
3:34 PM 54.3 °F - 48.2 °F 80% 29.32 in 10.0 mi SSW 18.4 mph 24.2 mph N/A   Overcast
3:54 PM 54.5 °F - 48.0 °F 79% 29.34 in 10.0 mi SW 25.3 mph 31.1 mph N/A   Overcast
4:14 PM 54.5 °F - 47.3 °F 77% 29.31 in 10.0 mi SW 18.4 mph 28.8 mph N/A   Overcast
4:34 PM 53.8 °F - 47.5 °F 79% 29.30 in 10.0 mi SW 17.3 mph 25.3 mph N/A   Overcast
4:54 PM 54.0 °F - 46.4 °F 76% 29.28 in 10.0 mi SW 16.1 mph 25.3 mph 0.01 in   Overcast
5:14 PM 53.6 °F - 45.5 °F 74% 29.29 in 10.0 mi SW 18.4 mph 25.3 mph N/A   Overcast
5:34 PM 53.6 °F - 45.1 °F 73% 29.28 in 10.0 mi SW 18.4 mph 26.5 mph N/A   Overcast
5:54 PM 52.7 °F - 44.8 °F 74% 29.26 in 10.0 mi SW 17.3 mph 25.3 mph N/A   Mostly Cloudy
6:14 PM 52.7 °F - 44.6 °F 74% 29.26 in 10.0 mi SW 17.3 mph - N/A   Scattered Clouds
6:34 PM 52.7 °F - 43.7 °F 71% 29.26 in 10.0 mi SW 20.7 mph 29.9 mph N/A   Scattered Clouds
6:54 PM 52.2 °F - 42.8 °F 70% 29.25 in 10.0 mi SW 21.9 mph 26.5 mph N/A   Scattered Clouds
7:14 PM 51.8 °F - 43.3 °F 73% 29.25 in 10.0 mi SW 18.4 mph 24.2 mph N/A   Scattered Clouds
7:34 PM 51.4 °F - 43.3 °F 74% 29.25 in 10.0 mi SW 13.8 mph 24.2 mph 0.01 in   Overcast
7:54 PM 42.8 °F 32.3 °F 37.6 °F 82% 29.28 in 5.0 mi WNW 29.9 mph 41.4 mph 0.01 in   Overcast
8:14 PM 40.5 °F 29.7 °F 35.4 °F 82% 29.30 in 10.0 mi West 26.5 mph 36.8 mph N/A   Overcast
8:34 PM 39.9 °F 29.2 °F 35.2 °F 83% 29.30 in 10.0 mi West 25.3 mph 29.9 mph N/A   Overcast
8:54 PM 38.3 °F 28.7 °F 34.0 °F 84% 29.32 in 7.0 mi WNW 18.4 mph 31.1 mph N/A   Overcast
9:14 PM 37.9 °F 25.9 °F 32.2 °F 80% 29.33 in 10.0 mi West 28.8 mph 32.2 mph N/A   Overcast
9:34 PM 37.4 °F 27.2 °F 31.6 °F 80% 29.34 in 10.0 mi West 19.6 mph 34.5 mph N/A   Overcast
9:54 PM 36.5 °F 26.3 °F 31.1 °F 81% 29.34 in 10.0 mi WNW 18.4 mph 25.3 mph N/A   Overcast
10:14 PM 35.6 °F 24.5 °F 30.2 °F 81% 29.37 in 10.0 mi West 20.7 mph 27.6 mph N/A   Overcast
10:34 PM 34.5 °F 21.3 °F 29.8 °F 83% 29.37 in 10.0 mi West 28.8 mph 34.5 mph N/A   Overcast
10:54 PM 33.8 °F 19.9 °F 28.0 °F 79% 29.38 in 10.0 mi West 31.1 mph 40.3 mph N/A   Overcast
11:14 PM 33.3 °F 20.1 °F 27.3 °F 79% 29.41 in 10.0 mi West 26.5 mph 35.7 mph N/A   Overcast
11:34 PM 33.3 °F 20.3 °F 26.6 °F 77% 29.42 in 10.0 mi West 25.3 mph 36.8 mph N/A   Overcast
11:54 PM 33.3 °F 19.3 °F 26.6 °F 77% 29.44 in 10.0 mi West 29.9 mph 36.8 mph N/A   Overcast